Tracking 31027 objects as of 19-Jul-2025
HD Live streaming from Space Station
objects crossing your sky now

STARLINK-5770

Track STARLINK-5770 now!
10-day predictions
STARLINK-5770 is classified as:


NORAD ID: 56026
Int'l Code: 2023-042AS
Perigee: 565.2 km
Apogee: 567.3 km
Inclination: 43.0 °
Period: 95.8 minutes
Semi major axis: 6937 km
RCS: Unknown
Launch date: March 24, 2022
Source: United States (US)
Launch site: AIR FORCE EASTERN TEST RANGE (AFETR)
Your satellite tracking list
FENGYUN 1C DEB
Track 1 satellite(s)




NASA's NSSDC Master Catalog

Two Line Element Set (TLE):
1 56026U 23042AS  25199.38036357  .00000543  00000-0  55289-4 0  9996
2 56026  43.0028 236.3123 0001514 274.2032  85.8637 15.02539853127816
Source of the keplerian elements: AFSPC